Theta_e
340 339 336 333 332 335 340 342 343 345 346 347 346 347 347 347 347 348 348 348 348 348 349 348 346 345 345 345 344 343 343 344 343 344 343 342 339 335 334 333 332 333 332 332 332 331 330 328 327 326 326 326 327 328 328 330 331 332 334 337 338 340 340 341 342 342 342 342 342 342 342 342 342 341 339 338 338 340 341 338 333 331 332 336 340
339 337 334 332 333 337 342 344 344 346 348 347 346 347 348 347 348 349 349 349 348 348 349 348 345 344 344 344 344 343 344 345 346 345 344 344 342 337 334 333 331 331 331 330 329 327 326 325 325 326 327 328 329 329 331 332 333 335 338 340 342 343 343 343 344 345 345 345 345 345 345 344 344 344 343 342 342 342 343 342 340 337 335 335 338
338 336 335 336 339 341 344 346 346 346 348 348 348 348 348 348 347 347 349 349 349 349 349 347 346 344 344 344 344 344 345 346 346 345 346 346 346 342 336 333 331 329 328 327 326 325 325 326 327 328 329 330 331 331 332 335 337 340 342 343 344 345 345 347 348 349 348 348 348 347 347 346 345 345 345 345 345 345 345 346 345 344 342 339 339
338 338 338 341 343 344 345 346 346 347 348 348 347 348 349 348 345 345 348 349 348 349 348 346 345 344 344 344 344 344 345 346 344 344 346 346 348 347 340 333 330 328 327 327 326 327 328 328 329 330 332 333 334 335 336 338 340 342 344 345 346 346 348 349 349 350 350 350 350 349 349 347 346 345 344 344 345 346 346 347 348 348 347 346 345
339 339 340 343 343 345 347 346 345 346 346 344 346 348 349 349 347 347 349 349 348 348 348 345 344 345 344 344 345 345 346 346 345 345 346 346 347 348 345 337 331 329 327 328 329 329 329 330 332 333 335 336 337 338 339 341 343 344 345 346 347 347 348 349 349 349 349 349 350 350 350 349 347 344 343 342 342 343 344 346 347 348 349 348 349
339 339 341 344 344 346 348 347 344 344 343 343 347 349 349 349 348 349 349 348 348 347 347 345 343 344 345 344 345 345 346 346 346 346 346 346 346 347 347 343 340 335 330 329 329 330 332 333 335 337 338 339 340 340 341 342 343 345 346 347 348 348 348 348 349 349 349 349 349 349 350 350 349 347 345 343 341 340 340 342 344 346 347 347 348
339 340 342 346 348 348 349 347 342 343 345 343 347 350 349 350 349 349 349 348 347 347 345 345 344 345 345 345 345 346 346 346 347 346 345 346 346 346 346 345 346 342 337 338 334 331 335 336 337 339 340 340 341 341 342 342 343 344 345 346 347 347 347 347 347 347 347 347 348 349 349 349 349 348 347 346 343 340 338 338 340 342 344 345 346
341 342 343 348 350 349 347 344 341 344 344 342 347 351 349 349 349 350 350 349 348 346 345 344 344 345 345 345 345 345 346 345 346 346 345 346 345 346 346 345 345 341 338 343 341 335 336 338 339 340 341 341 341 342 342 342 342 343 344 345 345 345 345 345 346 346 347 347 348 349 349 348 348 348 348 346 343 340 339 338 338 339 340 341 343
342 342 345 350 351 350 347 343 342 343 341 343 348 350 350 350 349 349 350 351 348 345 345 344 343 344 344 344 344 345 345 346 346 345 346 347 346 345 346 345 344 341 340 344 345 342 338 337 339 340 341 342 342 342 343 343 343 343 344 344 344 345 345 346 347 348 348 349 349 349 348 347 347 346 347 347 344 341 341 341 341 340 339 339 339
341 340 344 350 350 349 348 343 342 341 341 346 349 350 351 351 351 348 347 350 349 347 346 345 344 343 344 344 343 344 345 345 345 346 346 345 345 345 345 345 345 345 345 346 346 344 341 340 339 340 342 343 343 344 344 344 345 345 344 344 345 346 347 348 349 349 349 350 350 349 347 347 346 346 346 347 346 343 341 342 343 342 342 342 341
341 341 343 348 350 348 346 343 343 342 342 348 350 349 346 347 349 347 347 350 349 347 346 345 344 343 343 343 343 343 344 345 346 346 345 344 344 345 345 345 345 346 346 346 346 345 345 344 343 344 345 344 343 345 346 346 346 345 344 345 347 348 348 348 349 349 349 350 350 348 346 345 346 346 346 347 347 346 343 342 343 343 343 344 345
341 341 341 345 348 348 344 343 345 344 344 348 350 347 342 342 345 345 350 351 348 347 345 344 344 342 343 343 343 343 344 345 346 344 345 344 342 343 344 344 344 345 345 345 345 345 346 345 345 347 348 346 344 344 346 346 346 345 345 347 348 348 348 348 348 348 349 349 349 347 346 345 346 345 345 345 345 346 346 344 342 343 344 344 345
339 341 341 342 345 345 343 343 346 345 343 345 346 344 342 342 342 345 351 352 347 347 344 343 344 341 343 343 342 343 344 344 344 343 343 343 342 342 343 344 344 344 345 345 345 345 346 346 347 348 349 347 346 346 346 346 346 346 347 348 348 348 348 348 348 348 348 348 347 346 345 346 345 344 343 343 343 344 345 346 344 343 343 344 344
339 341 341 342 344 344 343 344 345 344 343 343 343 342 341 342 343 346 350 351 348 347 344 344 343 340 342 343 341 342 343 343 343 342 342 341 341 342 343 342 343 343 344 345 346 345 345 345 346 347 347 346 346 348 348 347 347 347 347 348 348 348 348 348 347 347 346 346 346 345 345 344 343 342 341 341 341 341 343 344 346 345 343 344 344
341 342 342 342 343 344 346 345 343 343 344 343 342 342 341 342 344 345 349 351 347 345 344 343 343 341 342 343 342 342 343 342 342 341 340 340 340 341 341 341 342 344 344 344 345 345 345 344 344 344 345 344 344 347 349 349 348 347 348 347 348 348 348 348 348 347 345 345 345 345 344 343 342 341 341 342 341 342 342 342 344 345 344 344 344
343 344 345 342 339 345 349 347 343 343 344 343 344 345 343 343 345 344 348 352 348 346 346 344 343 344 345 343 339 340 341 341 341 341 339 339 340 340 340 342 342 342 343 344 342 342 342 341 342 344 344 343 343 343 347 349 347 347 348 347 348 348 348 348 348 348 345 344 344 344 343 342 342 341 341 343 343 343 343 343 344 344 343 342 344
343 344 347 343 339 343 346 347 344 342 346 348 348 348 347 346 344 343 347 350 349 349 347 345 345 343 346 347 342 340 341 340 340 343 341 339 341 341 341 342 342 342 343 344 343 343 343 342 343 346 345 344 342 342 348 348 346 347 348 347 347 347 348 348 348 347 345 344 344 344 343 342 342 342 344 344 344 344 343 343 345 345 344 342 344
343 344 345 342 341 342 342 347 347 343 345 348 348 348 350 349 344 345 349 347 348 352 349 346 347 344 345 347 344 343 344 343 342 344 344 342 342 342 342 343 343 344 344 344 345 346 346 345 343 344 344 344 341 342 349 349 347 348 347 347 347 347 348 348 348 347 345 344 344 344 343 343 343 343 344 343 342 342 341 342 343 345 346 346 347
346 344 344 343 343 342 342 346 349 347 344 346 350 353 353 349 343 343 347 344 347 352 351 349 349 347 346 346 345 346 345 345 344 344 346 345 344 343 343 343 343 344 345 345 346 347 348 348 345 344 345 344 341 344 350 349 346 347 348 348 348 348 348 347 346 346 345 344 344 344 344 343 343 342 342 341 340 340 340 341 342 343 344 347 349
347 345 344 344 343 343 343 344 348 349 345 348 353 354 351 346 342 343 344 345 346 348 350 352 350 349 348 347 347 347 346 347 346 345 345 345 345 345 344 344 344 345 347 346 346 348 351 351 349 349 349 347 343 346 351 349 348 349 348 349 349 348 345 344 344 344 344 343 344 344 344 343 342 341 341 340 340 340 341 343 343 344 344 346 349
345 345 343 344 343 343 343 342 345 346 347 353 354 351 348 344 343 344 344 346 346 346 348 350 352 352 351 351 350 348 347 347 348 348 346 346 346 345 346 346 345 347 349 347 347 349 351 351 351 351 351 351 350 350 350 349 350 351 349 349 348 344 341 341 343 343 343 344 344 344 343 342 341 341 340 339 340 342 343 344 345 346 346 346 349
343 342 342 342 342 343 345 344 346 348 349 353 351 347 345 344 345 345 344 345 346 346 347 349 352 352 352 353 352 350 350 349 349 348 346 347 347 345 346 346 346 347 349 348 347 349 351 350 351 350 350 352 352 352 351 350 349 349 347 346 343 340 339 340 342 342 343 344 344 343 342 342 341 340 339 339 342 343 344 345 346 346 346 346 347
346 344 341 342 341 342 348 350 350 348 346 348 352 352 351 352 350 345 344 345 345 346 347 350 352 351 351 353 351 349 350 349 349 349 348 349 348 346 346 347 347 347 349 349 347 349 351 351 351 351 350 352 351 349 350 351 349 345 343 341 339 339 339 340 341 342 343 343 342 342 342 340 339 338 338 341 343 344 345 347 347 346 345 345 346
346 347 345 345 344 340 346 350 347 346 346 348 352 352 352 355 352 347 346 346 345 345 346 350 353 352 352 352 350 349 349 349 349 349 349 350 349 348 347 348 348 347 348 351 349 349 352 351 351 351 350 351 351 348 349 351 348 342 339 338 338 340 340 340 342 341 342 342 342 342 339 337 337 337 340 342 344 344 347 349 347 346 345 345 346
343 347 347 348 346 341 342 345 343 344 346 346 347 346 347 351 349 349 351 349 347 346 346 351 354 352 351 352 351 350 350 350 350 348 348 350 350 350 349 350 349 347 348 351 351 349 349 350 351 351 351 350 349 348 346 348 346 338 336 337 337 339 341 341 342 342 342 342 342 340 337 336 337 340 342 343 344 345 348 351 349 348 347 346 347
345 347 347 349 349 345 342 344 344 343 343 343 344 343 344 347 348 349 353 351 347 345 347 351 352 351 352 352 351 350 351 351 351 350 349 348 349 350 350 351 349 346 348 349 350 349 348 349 349 351 351 348 348 347 342 345 344 331 331 341 342 341 343 343 343 342 342 341 339 337 335 337 340 342 343 344 345 346 348 352 352 351 350 349 350
348 346 344 345 348 346 342 342 343 343 343 342 343 345 344 344 346 346 350 352 347 345 349 352 352 353 353 353 351 351 351 352 350 350 350 350 350 350 351 351 351 349 347 348 349 349 349 349 349 350 351 348 348 346 340 343 342 330 332 344 346 343 341 341 342 341 340 339 337 336 337 340 341 342 344 345 345 346 349 353 354 353 353 352 352
348 344 341 340 342 343 342 344 344 342 344 342 342 346 345 344 345 343 347 354 351 346 350 353 352 353 353 353 352 351 351 352 351 350 351 352 351 351 351 352 354 353 350 351 352 349 349 350 349 350 350 348 348 346 342 344 340 331 337 344 344 345 341 338 340 339 338 338 338 340 341 341 342 342 345 346 346 347 349 353 354 354 354 353 352
347 345 344 342 340 341 344 347 346 344 345 345 343 344 344 345 348 345 347 354 353 347 349 352 353 353 352 353 353 352 351 352 352 351 352 354 353 353 354 354 355 356 354 354 353 350 349 350 349 350 351 348 346 344 342 343 339 333 338 343 344 345 341 338 341 339 340 341 341 343 342 340 342 343 345 346 346 348 350 352 354 354 354 354 353
349 348 349 347 342 341 343 345 346 345 345 347 346 344 343 345 348 348 348 349 349 347 348 349 351 353 353 352 353 352 352 352 352 352 354 356 355 354 355 355 356 356 356 357 355 351 350 350 349 349 350 348 345 342 339 340 340 336 338 344 344 342 341 343 345 343 343 343 342 341 340 340 343 344 345 346 347 348 350 351 353 354 354 354 353
349 346 347 349 348 345 343 344 346 346 345 345 345 343 341 345 349 351 351 349 346 346 348 350 352 354 353 353 353 353 353 353 353 352 353 356 355 354 354 356 356 356 356 357 356 352 350 351 351 347 346 346 342 342 340 338 340 338 336 341 342 340 345 350 350 349 347 345 341 338 339 341 343 345 346 346 347 348 349 350 351 352 352 353 352
350 347 346 349 352 351 349 349 350 350 350 349 349 347 343 344 348 352 355 354 349 346 349 352 354 355 354 353 353 354 353 353 353 353 353 354 354 354 354 355 356 356 357 357 356 354 353 352 351 346 343 344 341 343 344 341 342 340 339 343 344 345 351 353 352 352 350 347 342 338 339 342 343 345 346 347 348 349 349 350 350 350 350 351 351
352 351 350 349 350 351 351 352 352 353 352 349 349 350 346 343 345 347 349 349 346 345 348 349 350 353 353 350 349 351 351 352 353 353 352 352 353 354 355 355 355 355 357 357 357 357 356 353 351 347 345 344 343 344 346 345 345 344 343 347 348 349 351 351 351 351 351 349 344 339 341 343 344 346 346 348 349 349 349 349 349 349 349 349 350
352 352 352 352 351 350 351 352 351 351 350 346 346 350 350 348 347 349 350 349 345 345 345 344 344 348 351 349 349 351 353 354 355 354 352 351 351 352 353 354 354 354 356 358 356 356 356 354 351 347 345 345 345 346 348 348 349 349 348 349 348 348 350 350 349 350 351 349 344 341 343 344 345 346 347 348 349 348 349 348 348 348 348 349 349
352 352 352 352 352 351 350 350 349 347 347 346 348 350 350 348 347 349 352 353 351 349 348 348 347 349 351 352 352 354 354 355 356 355 353 353 352 353 352 352 352 352 353 355 356 354 353 352 350 347 345 345 346 347 348 349 351 351 352 350 346 347 350 351 350 350 351 348 345 344 345 346 347 347 348 348 349 348 348 347 348 348 349 349 349
353 353 352 353 352 350 347 347 346 345 346 347 349 351 351 349 348 349 350 350 350 350 351 351 350 351 352 353 354 354 354 355 356 355 354 354 354 353 353 352 352 351 351 352 353 353 352 352 351 349 348 348 349 349 349 350 351 352 353 353 351 351 351 351 351 351 350 350 348 348 348 348 348 348 348 348 348 347 347 348 348 349 349 349 349
353 354 354 353 352 350 349 350 350 348 348 348 349 351 353 354 354 353 353 351 349 349 350 349 348 349 350 352 353 354 354 356 357 355 355 355 355 354 353 353 352 351 351 351 351 352 352 351 350 350 350 351 351 352 351 351 351 351 352 354 355 355 351 347 349 351 351 352 351 350 350 349 349 348 348 349 348 346 347 347 347 348 348 348 348
353 354 354 354 354 352 351 351 353 352 350 350 349 349 352 355 355 355 355 354 353 353 352 352 352 351 352 353 354 354 355 355 356 356 356 355 354 354 353 353 351 350 351 350 350 352 353 352 351 351 351 352 352 353 353 353 352 352 354 353 353 354 350 345 346 350 351 352 351 351 351 350 348 348 348 348 347 345 345 345 344 345 347 347 347
353 353 354 354 355 355 353 352 353 354 352 351 349 347 349 354 355 355 355 355 356 355 354 354 355 354 354 355 355 356 356 356 356 356 356 355 354 354 354 353 351 351 350 346 346 349 351 351 351 351 350 350 352 353 353 354 354 355 356 354 352 351 348 344 346 349 350 350 350 350 350 348 347 348 348 347 345 343 344 343 340 340 341 344 346
353 353 353 354 354 355 355 354 354 355 355 353 351 349 349 352 354 355 356 355 355 355 355 355 355 355 355 355 355 355 355 356 357 355 355 356 355 355 354 350 348 349 348 344 343 347 349 350 350 350 349 351 353 354 353 354 356 357 355 352 351 350 348 347 350 350 349 350 349 349 349 347 345 347 348 346 344 342 341 340 338 337 335 334 339
354 353 353 354 354 354 355 355 355 355 355 355 355 354 352 353 355 355 356 356 355 355 355 355 355 355 355 355 355 354 353 354 353 351 350 349 350 354 353 349 348 349 348 346 345 347 348 349 351 351 350 352 352 351 351 351 352 354 354 350 349 350 350 350 351 350 348 349 349 348 349 347 345 346 347 345 343 340 337 334 332 333 334 330 328
354 354 354 354 355 355 355 355 356 355 355 355 355 354 352 353 354 355 356 356 357 356 354 353 352 351 350 350 348 348 351 353 351 350 349 347 347 350 352 352 351 350 349 348 348 349 350 351 351 351 350 349 348 347 348 348 349 353 353 349 348 349 349 350 351 350 349 348 346 346 348 347 344 344 345 344 341 336 332 329 325 326 331 330 326
353 353 354 354 354 355 355 355 355 354 354 354 353 352 351 352 352 354 355 356 357 356 353 351 350 349 349 350 348 348 351 353 353 351 350 352 351 350 350 351 351 350 350 349 347 348 350 351 351 350 348 348 347 348 349 349 349 350 348 346 348 350 350 351 352 351 349 346 343 344 347 347 344 343 343 343 340 333 328 325 323 323 327 328 326
353 352 352 353 353 354 354 354 354 353 353 353 352 351 351 351 351 352 353 354 355 355 354 353 352 352 353 353 352 352 353 353 352 349 346 349 351 352 352 351 350 350 350 348 347 347 348 351 351 351 350 349 350 350 349 347 345 343 343 346 349 351 352 352 351 350 347 343 338 338 344 345 342 341 342 342 339 333 328 325 323 323 327 327 324
352 353 353 353 353 353 354 354 355 355 354 352 352 352 352 352 352 352 352 352 351 352 352 352 351 352 353 352 351 351 350 350 350 349 346 346 348 350 351 351 351 351 348 348 347 347 348 350 351 352 351 349 348 347 344 342 341 342 345 348 349 351 352 350 349 347 344 341 334 332 339 344 341 339 342 342 339 335 331 328 325 325 328 328 324
347 349 352 354 355 354 354 355 355 355 353 351 351 352 352 352 351 351 352 352 351 349 350 350 351 352 352 351 350 350 350 349 349 349 349 348 348 347 347 348 349 347 345 347 347 345 346 347 348 352 352 348 346 345 343 342 343 345 347 348 348 349 349 347 346 344 342 340 333 328 333 341 340 337 340 341 338 335 332 329 329 331 331 327 323
345 346 349 352 355 355 355 355 354 354 354 352 351 350 350 350 349 349 350 351 351 350 349 350 350 349 348 349 350 349 349 349 348 348 348 348 348 347 346 348 349 348 347 349 349 346 345 346 349 352 352 349 347 346 345 345 345 347 348 347 347 346 344 343 342 340 341 342 337 328 327 334 339 336 336 338 338 335 333 330 329 331 331 326 321
347 347 346 349 351 352 353 353 353 353 353 351 350 350 349 348 347 347 347 347 348 349 348 349 350 350 351 353 351 348 347 347 346 345 346 346 347 347 347 349 351 351 350 350 350 348 346 346 347 349 349 348 347 347 346 346 346 347 346 346 345 342 341 341 338 334 337 340 338 328 320 326 337 337 331 332 336 336 335 332 330 330 329 323 318
348 348 346 347 348 349 349 350 351 352 351 350 349 349 348 348 347 347 346 346 347 348 350 351 352 354 354 353 349 347 349 349 345 344 345 345 345 345 344 347 349 350 351 352 352 350 349 347 346 347 348 347 347 347 346 345 346 345 343 342 340 336 335 335 332 329 331 335 334 325 318 324 335 335 330 328 331 334 335 333 332 332 328 319 315
350 349 349 349 348 348 348 348 350 351 351 350 349 349 348 348 347 347 347 346 346 347 350 352 353 354 353 350 348 348 349 349 347 345 344 344 345 344 345 348 349 349 350 351 351 350 350 348 348 348 348 348 348 346 345 345 344 343 340 337 334 331 330 330 330 327 327 332 333 324 317 323 332 332 329 327 327 332 335 333 332 332 328 321 316
349 349 349 349 349 348 348 348 348 349 349 349 348 348 348 348 348 347 347 347 347 348 350 352 353 354 352 350 347 347 348 348 347 346 345 345 345 344 345 347 348 348 349 350 350 349 349 348 349 349 347 346 346 344 344 343 341 339 337 333 329 326 324 325 329 329 328 331 330 320 312 319 328 330 328 327 328 331 334 332 331 330 328 325 322
Wind_Speed
12 12 12 12 12 11 10 8 8 7 6 5 6 7 6 6 6 6 6 6 6 6 7 7 7 8 8 8 8 8 9 8 8 9 8 7 8 8 8 8 9 9 10 11 11 12 13 13 13 13 12 12 12 11 11 11 11 11 11 11 11 11 12 12 12 13 13 13 13 13 13 12 12 11 11 10 9 9 10 11 12 11 9 8 7
12 12 13 12 11 10 9 8 7 7 6 5 6 6 6 6 6 5 5 6 6 6 7 7 7 8 8 7 7 7 8 8 9 9 8 8 9 9 10 10 10 11 11 12 13 13 14 14 14 13 13 12 11 11 11 11 10 10 10 10 11 11 11 11 12 13 13 13 13 13 13 13 13 12 12 12 11 11 11 11 12 11 9 7 7
13 13 13 12 10 9 9 8 6 6 6 5 5 6 6 6 5 6 6 7 7 7 7 8 7 7 7 7 7 6 7 7 8 8 8 8 9 10 10 11 11 12 12 13 14 14 14 14 14 13 12 11 11 10 10 10 9 9 10 10 10 10 10 11 11 12 13 13 13 13 13 13 13 13 12 12 12 12 13 12 12 12 10 8 7
13 13 12 11 9 8 7 7 6 5 5 5 6 6 6 5 6 7 7 7 6 7 7 7 7 7 6 6 6 6 6 7 7 7 7 7 8 8 9 11 12 12 12 13 13 14 14 14 13 13 11 10 10 9 9 9 9 9 9 9 9 9 9 10 10 11 12 12 13 13 13 13 13 12 12 12 12 13 13 13 12 12 12 11 10
13 13 12 10 9 8 6 5 6 5 5 7 7 6 6 5 5 6 6 6 6 6 7 7 7 7 6 6 6 6 6 6 6 6 6 5 6 6 6 9 11 11 11 12 12 13 13 13 13 11 10 9 8 8 8 8 8 8 8 9 9 9 8 9 10 11 11 12 12 13 13 13 13 13 13 13 13 13 13 13 13 13 13 13 13
13 12 11 9 8 7 6 4 6 6 6 7 6 5 5 5 5 5 6 6 6 6 6 6 6 6 6 6 6 6 6 6 6 6 6 5 5 5 5 6 8 9 10 11 12 12 12 12 11 10 9 8 8 8 7 7 7 7 7 8 8 8 9 9 10 11 12 12 12 12 12 12 13 13 13 13 13 13 13 13 14 14 14 13 13
12 12 12 9 6 5 5 5 6 6 6 7 6 4 5 5 6 6 6 6 5 5 6 6 5 5 6 6 6 6 6 6 6 5 5 5 4 5 5 5 5 6 8 8 9 11 11 10 9 8 8 7 7 7 7 7 7 6 7 7 8 8 9 10 10 11 12 12 12 12 12 12 12 12 12 12 12 12 12 12 12 13 14 14 13
13 12 11 8 5 5 5 6 7 6 6 6 5 4 4 5 6 7 6 6 5 4 5 5 5 5 5 5 5 6 5 5 6 5 5 5 4 4 4 5 5 7 9 7 6 8 9 9 8 7 7 6 6 7 7 7 7 7 7 7 7 8 9 10 11 11 12 12 12 12 12 12 12 12 12 12 12 12 12 12 12 11 12 13 13
12 12 10 6 5 5 5 6 6 5 6 5 3 3 4 4 6 6 6 6 5 4 4 3 4 4 4 4 4 5 5 5 5 5 5 5 4 4 3 4 5 7 7 5 4 4 6 6 6 6 6 6 6 6 7 7 7 7 7 7 8 9 10 10 11 11 12 12 12 12 12 12 13 14 14 13 12 12 12 12 12 12 12 12 13
11 11 9 6 5 5 4 5 5 5 4 3 3 3 4 5 5 5 6 6 4 4 3 3 3 3 3 3 3 3 4 4 4 4 4 4 4 4 3 3 4 4 3 3 2 2 4 4 4 5 5 6 6 6 6 7 7 7 7 6 7 8 9 10 11 12 12 12 13 12 12 13 14 15 15 14 13 12 12 12 12 12 12 13 13
11 10 9 6 4 4 4 4 4 4 4 3 3 3 4 5 5 5 7 6 5 4 3 3 2 2 2 2 2 3 3 3 3 3 3 4 3 3 3 2 2 2 3 3 2 2 2 3 3 4 5 5 6 6 7 7 7 7 5 5 6 8 10 11 12 13 13 13 13 12 12 14 15 16 17 16 15 14 13 12 12 12 13 13 13
11 9 8 7 5 4 5 4 4 4 4 4 3 3 4 5 5 6 6 5 4 4 3 2 1 1 1 2 2 2 3 3 2 2 2 3 2 1 1 1 1 1 1 1 1 1 3 2 3 4 5 5 5 5 6 7 7 6 5 5 7 9 11 13 14 14 14 14 13 12 13 15 16 18 19 19 19 18 16 15 13 13 13 14 13
10 8 7 6 6 5 5 4 4 4 4 4 4 4 4 4 4 5 6 5 4 4 3 3 1 1 1 2 3 3 2 3 2 1 1 1 1 1 1 1 1 1 0 1 1 2 4 4 5 5 5 7 7 6 5 6 6 5 5 7 9 11 12 13 15 15 15 14 13 13 14 15 16 18 20 20 20 19 19 18 17 14 14 14 14
9 8 7 7 6 6 4 4 4 4 4 3 4 4 3 3 4 4 5 4 4 4 3 3 1 1 2 2 3 4 2 1 2 2 2 1 0 1 1 1 1 1 2 3 3 4 6 6 7 8 8 8 8 7 7 8 7 6 7 9 10 12 13 14 15 16 17 15 14 14 15 16 16 18 20 21 21 19 19 19 18 17 15 16 16
8 7 7 7 7 6 4 4 4 4 4 3 4 3 3 2 3 4 4 3 3 4 4 3 2 1 2 2 3 3 2 1 1 2 2 2 1 0 1 2 1 2 3 3 3 4 7 7 8 12 13 11 9 7 7 8 8 7 8 11 12 14 14 14 15 17 18 16 15 15 15 16 17 19 21 21 21 20 20 20 19 18 16 17 16
8 7 6 7 8 6 4 4 4 4 4 3 3 3 3 2 2 4 4 2 2 3 4 3 3 2 1 1 2 2 1 1 1 1 2 3 2 2 2 2 2 2 3 4 6 7 8 8 10 15 18 16 11 8 6 8 9 9 10 12 13 14 14 14 16 17 18 16 15 15 15 17 20 21 21 20 21 21 22 22 21 19 17 18 18
9 8 7 7 7 6 5 4 4 4 4 3 3 4 3 3 2 2 4 3 2 2 3 3 3 3 2 1 0 0 1 2 2 2 3 4 3 3 2 2 3 3 4 6 7 6 7 9 11 14 17 16 12 7 6 9 11 10 11 12 13 13 14 15 17 17 17 16 16 16 17 19 20 21 21 21 22 22 23 23 21 20 18 19 19
9 8 7 7 6 6 6 4 3 4 4 4 4 4 3 3 2 1 2 3 3 2 2 3 3 4 4 2 1 2 3 3 4 2 2 3 3 3 2 3 4 3 4 5 5 5 7 10 11 12 14 13 10 7 6 9 11 11 12 12 13 14 15 17 17 16 16 16 17 17 18 19 19 19 20 21 23 23 24 24 22 21 19 19 20
8 8 7 7 6 5 5 5 3 3 4 5 4 3 3 4 3 2 1 1 2 3 2 2 3 3 2 2 2 2 3 3 4 3 3 3 3 3 3 4 4 4 5 6 6 8 10 12 11 11 13 12 9 6 6 11 13 12 12 12 14 16 17 17 16 16 16 17 17 17 17 17 18 20 21 22 24 25 25 26 25 24 22 20 19
8 8 7 7 6 5 5 4 4 4 4 4 3 3 4 5 4 3 2 1 1 2 2 3 3 2 2 2 2 3 3 3 4 4 4 4 4 4 4 4 5 5 7 8 9 10 10 11 10 10 11 12 10 6 7 12 12 11 12 13 15 18 18 17 15 15 16 17 17 17 17 18 19 22 23 25 26 27 27 27 26 25 24 22 19
8 8 7 7 6 6 5 5 5 5 4 3 3 4 4 5 5 4 3 2 2 1 1 2 3 3 3 3 3 3 3 3 4 4 4 5 6 6 5 5 6 6 7 9 10 9 9 9 9 8 8 10 9 7 8 11 10 10 14 15 18 19 17 15 15 15 16 16 16 18 19 20 22 23 25 26 27 27 27 26 25 23 22 20 18
7 7 7 7 7 6 5 4 4 5 5 5 4 4 3 4 4 5 5 3 3 2 1 0 1 2 3 3 3 3 4 4 5 4 4 5 6 8 8 7 8 8 8 11 11 8 8 8 7 7 7 7 7 7 9 11 11 12 15 17 17 17 16 15 15 15 15 16 17 19 21 22 23 24 25 26 27 27 26 24 23 21 19 17 15
7 7 7 7 7 6 5 5 5 5 5 5 4 2 2 2 3 5 5 5 5 4 3 2 2 2 2 3 3 4 3 4 5 4 4 6 6 8 9 8 9 9 9 12 11 7 6 7 6 7 7 6 7 8 9 10 12 14 16 17 16 15 15 14 14 14 15 17 18 20 22 24 24 25 25 26 26 26 24 23 21 20 18 16 13
9 8 7 7 7 8 7 6 6 6 6 5 5 5 4 3 4 5 5 6 6 6 4 3 3 3 3 4 4 5 4 4 5 4 5 6 7 8 9 8 9 9 8 10 10 6 5 7 6 6 7 6 7 9 9 8 12 15 16 16 15 14 14 14 14 15 16 17 19 21 23 24 24 24 25 25 26 25 23 21 20 18 17 15 13
9 9 8 8 8 8 8 7 7 7 7 7 6 6 5 5 5 4 4 6 6 7 7 5 5 5 5 5 5 6 5 5 6 6 6 6 7 8 8 8 10 10 8 8 8 7 6 7 6 6 7 6 7 9 9 8 11 14 14 15 15 13 13 14 14 15 17 18 20 22 24 24 23 24 25 25 25 24 22 20 18 17 16 14 13
9 9 9 8 8 8 8 8 8 8 8 7 7 7 6 6 6 5 5 6 7 7 7 6 7 7 6 6 6 6 6 6 6 7 7 7 7 8 8 9 10 10 9 8 7 7 7 6 6 5 6 7 7 8 9 7 11 14 13 12 15 14 13 14 15 17 18 20 22 24 24 23 24 25 25 25 25 24 21 18 17 16 15 14 13
9 10 10 10 10 9 9 8 8 8 8 8 7 7 7 7 7 6 6 7 7 7 6 6 7 7 7 8 8 7 7 7 7 7 7 7 7 8 8 10 10 10 10 8 7 7 7 7 6 5 7 8 6 8 10 8 10 15 13 10 14 16 15 16 17 19 20 22 23 23 23 23 25 26 26 25 24 23 20 17 16 15 15 14 14
10 10 10 11 10 10 9 9 9 9 8 8 8 7 8 8 8 8 7 6 8 7 6 6 7 7 8 8 8 8 8 8 8 8 8 7 7 8 8 9 10 10 10 8 7 7 7 7 7 5 6 8 6 7 10 8 10 14 12 10 12 15 18 19 19 20 21 22 22 22 23 25 26 26 25 25 23 22 19 17 16 15 15 14 14
9 9 9 10 11 10 9 9 9 9 8 8 9 9 9 8 8 9 8 7 9 9 7 7 7 7 7 7 8 8 8 9 9 8 8 9 8 8 8 8 8 9 9 9 8 8 7 7 8 7 7 8 6 7 8 9 13 16 12 11 12 13 18 19 18 19 19 20 21 23 25 26 26 26 25 24 23 21 19 17 16 15 15 15 14
9 9 9 10 11 11 11 10 9 9 9 9 10 10 10 9 9 9 9 9 10 9 8 8 8 7 8 7 8 8 8 8 8 8 8 8 8 7 8 8 8 8 9 9 9 9 9 8 8 7 7 7 7 8 9 9 15 18 13 11 12 14 17 17 17 18 18 19 22 24 26 26 26 26 25 24 23 21 19 17 16 16 16 16 15
10 11 11 9 9 10 11 10 10 10 10 10 10 11 11 10 9 8 8 10 11 10 9 8 7 8 8 8 8 8 8 8 8 8 8 8 8 8 8 8 8 8 8 9 10 9 9 9 8 7 7 8 8 9 9 10 14 18 15 13 14 15 15 16 18 19 20 21 24 25 26 26 25 25 25 24 22 21 19 18 17 16 17 17 17
10 11 11 10 9 10 10 10 10 9 10 10 10 11 11 11 10 9 9 11 12 10 9 8 8 8 9 9 9 8 9 8 9 9 9 9 9 9 9 8 8 8 8 9 10 9 9 8 8 8 7 8 9 9 10 10 12 15 15 13 15 15 13 13 17 20 21 23 26 26 25 25 25 24 24 23 22 20 19 18 18 17 17 17 17
11 10 11 11 11 11 10 10 10 10 11 11 10 11 12 12 11 11 11 12 12 11 10 10 10 9 10 11 10 9 10 10 9 10 10 10 9 9 8 8 8 7 7 8 9 10 9 8 8 9 8 9 9 9 10 11 11 14 14 12 13 13 12 12 15 19 21 24 26 25 24 24 23 23 23 22 21 20 20 19 19 18 18 17 17
11 11 11 11 12 12 11 11 11 11 12 12 11 11 11 12 12 11 10 12 12 12 12 12 11 11 11 12 11 10 10 10 10 10 10 9 9 9 8 8 8 7 7 8 9 9 9 9 9 9 9 10 10 10 11 11 12 14 13 13 13 12 12 13 14 17 21 23 24 23 22 22 22 21 21 21 20 20 20 20 20 19 19 18 17
11 12 12 11 12 13 13 13 13 13 13 13 12 11 12 13 13 12 11 11 12 12 12 12 12 11 11 12 11 10 9 9 10 10 9 9 9 9 9 9 9 8 8 9 10 10 10 10 10 10 10 10 11 11 11 11 13 14 14 15 16 13 13 14 13 15 19 23 23 23 22 21 20 20 19 19 19 19 19 20 20 19 19 18 17
11 12 12 12 13 14 14 14 14 14 13 13 12 12 12 13 13 13 13 13 13 13 13 13 12 12 12 12 11 11 10 10 10 10 9 9 9 9 9 9 9 9 9 9 10 10 11 11 11 11 11 12 12 12 12 12 13 13 14 15 16 14 13 14 13 14 17 20 22 22 22 20 18 18 19 18 18 19 19 19 19 19 18 18 16
12 11 12 12 13 14 14 13 13 13 13 13 13 13 12 12 12 13 13 14 14 14 14 14 14 13 14 13 12 12 11 11 10 9 9 9 9 9 9 9 9 9 9 9 10 10 11 12 13 13 13 13 12 12 12 13 13 14 14 13 13 13 15 16 15 14 15 16 18 19 20 19 18 18 18 17 18 19 19 19 19 18 17 17 16
13 12 12 11 12 13 13 13 12 13 13 13 14 14 13 13 13 13 13 14 14 14 14 14 14 14 14 14 13 12 12 12 11 10 10 10 10 10 10 10 10 9 9 10 11 11 11 12 13 13 13 12 12 12 11 13 15 14 13 13 13 13 16 19 18 15 13 12 14 15 15 15 17 18 17 16 17 19 18 18 19 18 16 16 16
13 12 12 12 11 12 12 12 12 12 13 14 15 15 15 14 13 14 14 14 14 14 14 13 13 14 13 13 13 13 12 12 11 11 10 10 10 10 10 10 10 9 11 12 12 11 11 12 12 12 13 12 12 12 11 12 14 12 11 14 15 14 17 20 18 15 13 13 13 13 11 12 16 19 17 14 15 17 18 18 18 17 16 16 16
13 13 12 12 12 11 11 12 12 12 13 14 15 15 15 14 14 14 14 14 14 14 14 13 13 13 14 14 14 13 13 13 12 11 11 10 10 10 11 12 12 12 14 15 15 14 13 12 12 12 13 12 11 11 10 10 11 11 11 14 15 15 17 18 15 14 14 14 14 13 11 11 14 17 15 13 15 16 17 17 17 16 16 16 16
13 12 12 12 12 12 12 12 12 12 13 13 14 14 14 13 13 13 14 14 14 14 14 14 14 14 14 15 16 15 15 16 16 14 14 14 13 12 12 14 14 14 15 16 16 15 13 12 12 12 12 11 10 11 11 11 12 12 13 15 16 16 16 15 14 15 16 14 14 14 11 7 9 12 11 11 15 17 17 17 16 16 16 16 16
13 12 12 12 12 12 12 12 13 13 13 14 15 16 15 13 13 13 13 13 14 15 17 18 18 18 17 17 17 16 15 17 17 17 17 17 16 16 14 14 14 15 15 15 14 12 12 12 11 11 12 12 12 12 13 13 12 11 12 16 17 17 16 15 14 15 16 15 14 13 11 7 7 10 10 8 13 18 17 17 17 17 17 17 16
14 14 14 13 13 13 12 13 13 12 14 16 17 17 14 13 14 14 13 13 14 16 18 19 20 19 17 15 15 14 14 15 16 16 17 17 17 17 16 15 16 14 14 14 13 11 11 11 12 12 13 14 14 13 13 13 12 12 14 17 17 17 16 15 13 14 16 16 13 10 10 8 7 9 10 8 11 16 17 17 18 18 17 17 16
14 15 14 14 14 14 13 13 13 14 17 18 16 16 15 14 14 15 16 17 16 15 15 17 18 18 17 16 15 14 15 16 15 16 18 18 17 17 17 16 16 14 14 15 14 13 12 12 13 14 14 14 14 13 13 14 15 17 18 18 17 15 14 12 12 14 16 15 12 9 8 8 7 8 10 11 13 15 16 18 18 17 16 16 16
14 14 14 13 14 14 14 14 14 15 18 19 17 16 16 15 15 15 17 19 18 16 16 17 19 19 19 20 19 18 18 18 17 17 17 18 17 17 17 18 18 17 17 16 16 16 14 14 15 15 15 17 17 16 17 18 19 19 18 18 16 13 12 12 12 13 14 12 10 10 9 7 7 7 8 11 15 16 15 16 18 16 15 15 16
16 16 14 12 13 13 14 14 14 15 17 19 19 17 16 16 16 17 19 19 17 18 19 19 20 20 21 21 21 19 18 18 18 18 17 17 17 18 18 18 19 19 19 18 19 19 18 19 18 16 18 21 21 19 20 20 19 18 17 18 17 13 12 12 11 11 13 11 11 11 10 8 8 8 6 8 13 16 16 15 16 16 15 15 15
17 17 17 15 13 13 13 14 14 15 17 19 18 17 16 15 15 17 19 19 18 19 20 20 20 21 21 20 20 19 19 18 17 18 18 17 18 19 19 19 20 20 20 19 20 20 21 22 20 16 17 21 22 20 20 21 19 17 16 16 15 13 12 11 9 9 10 12 12 12 11 9 8 8 7 6 8 14 17 17 15 15 16 16 16
17 18 19 18 16 15 15 16 15 16 19 19 17 17 17 16 16 17 18 19 19 20 21 20 19 19 18 17 19 19 19 19 18 18 19 19 19 20 21 20 20 19 20 22 23 23 24 24 23 21 22 24 24 22 21 21 18 15 12 10 9 10 10 10 9 7 7 12 15 15 14 12 8 8 9 8 7 9 14 17 17 15 16 17 17
17 18 19 19 18 17 18 19 16 15 19 20 17 17 17 17 18 19 18 19 19 18 20 18 17 18 19 20 21 21 19 19 20 20 20 20 21 22 22 22 20 18 20 24 24 23 24 25 26 26 26 26 25 24 22 20 17 13 7 3 4 7 8 7 8 7 7 12 18 17 15 12 9 10 11 10 9 8 9 12 16 18 19 19 17
17 17 17 18 19 18 19 19 17 15 19 21 19 19 19 19 20 20 21 22 21 20 19 17 17 20 23 23 24 24 23 23 24 24 23 23 23 24 23 22 21 18 19 23 24 23 24 26 26 26 26 24 22 21 18 16 14 10 4 2 3 5 6 6 7 8 8 12 18 17 13 10 10 11 11 11 11 8 7 9 12 15 17 18 17
17 17 16 17 17 18 19 19 18 18 21 22 22 22 23 22 22 21 21 22 22 21 19 16 17 21 23 24 26 27 27 27 25 25 26 25 25 25 24 23 23 21 20 24 27 27 26 26 24 23 23 20 16 12 10 9 9 6 4 5 6 6 7 7 8 8 7 10 16 16 11 9 9 10 11 12 10 7 6 9 10 10 10 12 14
Wind_Direction
139 143 144 145 141 133 128 124 122 115 104 101 103 97 91 90 88 76 61 61 59 57 64 66 69 68 67 69 70 73 78 80 79 80 82 79 73 72 79 85 89 91 91 90 89 87 84 82 80 77 73 69 64 60 58 58 58 56 55 53 50 46 41 37 34 29 25 22 19 16 13 9 4 358 352 349 344 341 346 351 354 355 352 345 344
145 145 144 141 135 131 127 123 123 116 107 106 103 98 91 87 81 68 52 54 57 57 61 68 76 74 70 74 78 77 77 77 75 75 78 81 80 77 80 84 85 87 88 88 88 86 86 84 81 78 73 69 64 60 59 59 59 57 54 51 48 44 40 37 33 28 24 22 20 16 12 8 4 358 354 349 342 339 341 346 350 357 357 348 341
146 143 140 136 133 134 129 123 125 120 109 107 106 100 95 88 86 76 58 53 55 56 64 71 74 77 75 76 82 80 78 78 77 78 78 81 83 78 77 82 84 86 90 91 90 90 89 86 83 79 74 70 66 61 59 57 56 53 48 45 42 39 37 36 31 26 23 21 20 17 12 7 2 357 352 346 342 338 336 337 338 343 346 341 335
145 142 139 137 137 134 131 128 128 122 113 121 119 101 90 83 83 72 54 51 55 59 66 71 74 80 82 81 84 81 79 83 85 87 83 75 75 75 71 74 79 83 88 90 91 91 89 87 83 80 76 71 66 60 56 52 49 45 40 37 36 34 32 30 25 20 17 16 17 15 12 7 2 356 350 343 338 336 333 332 331 331 331 327 323
144 145 143 141 140 134 131 135 136 134 134 133 117 98 91 76 66 53 45 51 57 62 66 74 79 79 83 83 82 80 78 83 87 88 84 73 72 78 70 67 72 77 81 85 87 89 88 87 85 81 77 71 63 55 49 44 40 37 33 30 29 26 22 19 14 10 8 10 11 9 8 4 1 358 353 347 341 336 331 328 325 324 322 321 320
147 148 145 142 138 132 131 142 148 144 143 137 113 94 90 73 58 46 45 52 57 66 69 78 86 81 82 82 78 78 78 83 88 87 87 88 81 82 79 70 69 71 76 78 82 88 88 87 86 80 74 66 57 47 40 35 31 30 26 23 25 21 17 12 7 4 1 1 2 1 360 357 356 354 352 350 347 343 339 332 325 320 316 315 315
150 150 146 137 128 129 135 145 150 143 146 145 120 93 82 65 54 45 42 50 58 67 74 83 90 85 83 82 77 76 79 83 87 87 86 87 80 79 83 82 76 75 82 82 82 89 91 88 84 77 69 58 48 39 30 26 20 18 15 14 16 13 9 3 357 354 352 351 352 351 350 348 347 346 345 345 346 346 345 342 334 325 319 314 311
152 151 146 132 125 134 141 147 148 144 149 147 121 90 77 60 50 45 41 47 57 69 80 90 93 93 91 87 79 72 79 84 82 87 85 82 85 77 70 76 82 87 90 89 83 88 93 90 82 71 60 47 35 25 17 13 9 5 0 358 356 355 352 350 347 345 344 344 344 343 340 339 338 337 337 340 342 344 345 346 344 337 329 321 315
155 155 145 132 133 132 136 149 148 150 151 141 121 95 74 53 45 45 44 41 47 68 82 92 101 106 102 93 80 68 79 85 82 87 82 77 84 84 76 69 71 77 81 82 79 87 90 85 75 63 47 34 24 14 7 1 359 357 351 348 345 345 345 344 342 340 340 340 337 334 331 330 331 329 329 332 335 338 341 344 346 345 341 335 326
158 159 149 137 141 136 142 156 156 166 160 136 127 110 81 60 40 43 56 49 42 53 69 89 106 113 104 93 75 70 81 82 83 84 76 76 80 90 98 82 70 71 79 91 86 71 76 69 55 50 40 28 18 9 2 355 351 349 347 348 346 342 341 337 335 333 334 335 332 327 325 325 326 325 322 321 323 326 330 334 338 342 343 343 337
157 160 153 142 143 144 148 154 160 175 161 129 126 133 112 83 53 48 55 45 41 46 63 89 94 97 92 93 76 76 89 83 81 80 76 87 83 84 99 91 88 81 75 87 75 26 38 49 33 26 16 8 8 360 354 352 349 348 344 347 346 338 334 331 327 326 328 330 328 324 324 325 326 324 319 316 315 316 317 319 326 334 336 338 339
161 163 162 154 150 148 147 146 140 154 155 136 132 143 127 92 68 64 51 36 44 48 59 82 89 92 79 102 98 83 93 87 83 83 84 102 89 60 110 113 106 99 73 83 82 333 322 345 356 352 339 325 337 349 345 343 342 346 345 338 337 332 331 331 329 328 328 326 324 324 326 327 328 327 323 321 318 314 310 309 314 325 330 330 331
167 167 170 164 155 149 147 142 130 138 152 153 152 147 131 98 80 72 50 39 53 48 56 77 79 113 110 128 125 115 104 88 80 75 65 101 123 107 158 182 172 177 218 272 315 322 307 317 327 320 310 304 313 329 327 330 335 336 333 328 328 327 329 332 333 331 328 324 322 326 329 329 330 331 332 332 329 323 315 309 308 314 324 323 319
173 176 173 161 155 149 145 144 135 137 144 157 165 157 146 109 83 74 53 44 56 48 59 91 76 84 135 149 145 138 124 94 78 53 39 43 169 171 210 263 272 297 318 307 330 343 322 326 327 310 309 307 301 302 306 319 329 325 321 323 323 326 329 331 333 331 328 325 324 327 329 331 333 335 337 337 336 335 329 320 311 306 312 317 312
179 179 168 161 159 146 138 146 144 140 143 161 170 167 170 131 79 79 75 54 59 45 46 88 81 67 146 158 162 156 145 155 93 38 20 15 358 285 281 308 328 339 339 328 338 341 323 325 319 312 324 328 305 283 288 308 316 309 311 319 322 327 330 328 330 332 330 328 326 328 331 334 337 337 336 335 335 337 335 332 322 309 304 308 306
178 170 163 169 164 146 139 148 152 149 144 155 159 157 165 152 110 91 83 69 73 48 40 63 67 72 163 190 186 181 172 241 273 7 348 354 2 336 316 324 342 333 321 312 310 310 312 316 319 321 329 335 320 287 276 296 304 308 314 321 327 330 330 328 330 333 332 331 329 331 335 336 337 336 335 335 335 334 332 332 329 320 309 306 305
172 164 164 169 163 154 151 147 159 160 143 141 146 148 151 154 156 94 68 72 77 43 44 55 52 73 80 56 185 218 349 324 315 339 333 343 358 348 334 318 324 320 298 306 318 323 325 325 332 331 326 330 326 291 278 300 306 312 317 324 333 336 335 333 332 332 333 333 333 334 335 336 337 337 336 334 333 332 331 332 331 326 317 311 312
169 167 168 169 162 159 158 150 159 165 153 147 138 137 148 161 175 120 62 72 74 40 49 60 46 60 60 51 56 14 352 328 323 330 321 333 349 353 4 330 320 323 308 317 338 340 328 321 325 325 319 324 322 293 287 303 305 310 316 325 336 338 337 334 332 330 332 334 335 334 335 337 339 339 338 336 334 332 331 332 331 329 322 316 318
173 176 171 169 165 164 168 160 151 160 161 151 132 128 164 184 195 183 104 69 80 66 52 48 40 47 44 45 49 20 8 353 343 333 314 322 334 334 344 332 321 333 331 329 344 346 332 324 323 319 317 320 313 301 303 304 306 311 318 329 335 335 335 333 331 330 332 335 334 335 335 336 339 339 339 338 336 333 332 330 328 328 325 320 321
178 183 178 174 171 171 178 171 163 167 159 147 146 162 188 195 205 202 164 118 111 93 64 47 30 28 30 17 13 5 3 6 352 334 328 330 327 322 328 325 318 331 340 333 340 349 341 337 340 333 328 324 314 307 303 306 315 320 322 329 330 331 333 332 333 332 333 335 333 335 336 334 335 337 337 336 335 333 331 329 327 325 323 320 320
183 186 185 182 179 178 183 181 177 170 153 157 184 186 195 194 197 204 190 171 170 152 102 73 33 21 23 12 7 352 337 333 331 338 353 341 325 322 327 327 320 327 342 338 337 341 336 338 347 343 342 339 332 328 309 309 324 326 322 326 328 332 336 336 336 334 335 335 332 335 338 337 336 334 334 334 334 334 332 332 332 329 324 319 316
198 197 194 190 189 186 183 183 182 178 173 181 192 195 207 204 202 211 209 202 195 196 201 157 16 13 15 9 2 347 332 324 327 336 336 330 329 324 320 328 331 325 328 334 336 334 330 335 341 342 347 347 341 334 318 317 324 322 322 329 334 338 340 338 336 334 335 335 333 335 337 337 335 332 332 334 336 336 337 339 341 339 335 329 323
205 210 204 197 199 193 186 189 194 195 190 181 181 191 200 218 229 224 217 218 217 218 227 257 300 314 329 330 320 321 317 314 325 334 319 320 329 317 313 327 333 328 330 336 339 333 328 336 341 346 348 345 337 333 333 331 329 330 334 337 341 341 340 337 334 332 332 331 332 335 336 335 333 331 332 336 338 340 343 347 350 352 350 349 347
202 208 207 203 206 201 195 201 202 199 197 190 193 199 193 204 227 229 227 227 229 234 238 254 279 281 290 295 292 296 299 302 311 318 314 317 319 310 315 328 324 325 334 337 338 335 330 336 338 343 349 352 344 343 352 343 331 339 342 339 342 342 338 334 330 329 330 331 333 334 334 333 332 332 334 338 341 344 348 354 360 3 4 7 11
207 208 206 207 212 208 205 209 210 207 208 208 209 212 207 211 220 219 230 237 236 243 246 248 258 260 270 282 287 289 291 295 299 303 305 304 306 308 316 322 317 320 324 324 331 331 328 333 332 338 348 351 344 344 357 346 329 339 344 340 344 346 337 332 330 331 332 333 333 332 332 333 333 334 336 339 342 345 352 359 5 7 10 15 17
212 211 206 205 213 216 212 214 217 218 219 219 221 227 222 218 220 212 224 244 243 246 252 255 260 263 266 272 280 285 285 287 289 294 299 300 304 309 313 313 311 314 316 316 324 323 324 331 328 333 341 343 343 342 352 351 331 339 355 350 341 340 338 334 331 332 331 331 331 331 332 333 333 335 337 339 342 345 352 360 4 5 8 10 8
217 215 210 207 211 216 218 220 223 223 228 229 227 235 233 223 224 222 226 246 251 248 252 255 258 262 266 267 273 277 279 283 287 289 295 299 304 308 310 309 309 314 314 312 315 316 319 323 321 329 335 338 345 337 346 358 336 341 1 357 333 330 334 333 329 328 328 328 329 330 332 333 333 334 336 338 340 342 348 356 359 359 2 2 0
220 218 215 214 216 219 220 223 227 229 233 237 234 236 239 232 234 238 235 246 256 252 248 254 258 260 266 269 272 274 275 277 282 285 286 289 297 300 302 304 306 311 315 314 316 316 317 319 316 311 320 334 341 334 344 352 335 341 353 344 331 326 329 331 327 326 327 327 329 330 331 331 331 333 335 336 338 339 343 349 352 352 353 354 354
220 219 221 222 222 222 222 224 230 234 237 243 243 241 242 239 240 245 242 240 252 255 250 250 256 261 265 269 273 276 275 274 278 282 282 284 291 293 295 296 294 300 307 309 311 314 316 320 317 312 321 335 337 331 339 332 326 339 344 332 331 325 323 328 328 327 329 329 331 331 331 331 331 332 335 336 337 339 340 341 343 343 344 346 347
216 215 220 226 228 227 226 226 229 235 237 240 244 244 243 243 244 249 249 245 249 256 256 254 255 261 264 265 272 275 275 274 277 278 277 282 288 287 286 285 281 285 293 296 302 311 315 316 316 323 332 339 335 329 336 327 319 328 336 328 326 324 326 333 334 334 334 331 332 333 332 332 332 333 335 337 339 341 341 339 337 335 336 338 340
222 219 218 224 233 235 234 234 234 239 241 242 246 248 246 245 246 252 260 261 258 256 259 262 262 263 264 265 268 271 272 274 274 273 271 273 280 281 278 276 275 276 278 283 292 299 306 310 315 325 327 330 332 324 329 332 317 320 331 331 325 330 341 342 335 334 335 332 333 334 333 333 333 334 335 337 340 344 345 343 339 335 333 333 335
226 226 225 225 230 234 235 236 236 239 242 242 243 247 247 244 242 240 245 256 261 261 260 258 257 261 264 265 265 267 270 272 273 274 271 269 273 275 276 274 273 275 273 279 288 292 298 306 309 317 322 323 329 323 326 335 324 323 333 334 331 337 344 339 329 327 329 328 331 333 334 334 334 334 336 338 341 346 349 350 347 344 340 337 337
222 224 229 230 231 232 232 235 235 235 240 241 238 242 248 249 247 243 243 251 258 262 261 258 255 257 263 266 267 269 273 275 273 273 273 273 273 273 275 276 275 277 274 278 288 293 299 304 304 313 318 317 324 325 326 333 328 329 335 334 333 334 334 334 329 323 322 323 327 331 333 334 335 335 336 339 343 346 349 351 351 351 349 346 344
226 224 228 232 235 235 232 236 239 238 242 245 242 241 245 247 249 250 254 260 263 262 263 264 263 260 263 268 272 273 275 276 273 272 273 274 274 273 275 278 281 282 276 277 286 290 297 303 305 310 314 314 320 321 323 330 329 331 334 330 328 326 324 332 331 322 317 317 324 331 333 335 336 335 337 340 344 347 349 351 352 353 354 353 350
229 228 228 228 234 237 234 235 240 241 243 246 243 242 243 245 247 247 248 254 260 262 264 267 268 265 264 266 269 269 268 268 268 271 272 271 273 275 275 276 280 282 280 279 283 287 293 297 300 305 308 309 312 315 319 324 325 325 326 326 329 329 325 330 334 325 314 316 327 334 334 336 337 337 340 343 345 347 349 351 353 355 356 356 353
228 231 232 228 232 240 239 240 244 245 245 246 244 244 246 249 251 252 252 253 256 259 260 261 261 258 258 261 263 262 261 262 266 270 271 269 270 272 274 276 278 280 280 278 280 284 287 289 294 299 302 303 305 309 313 316 321 323 320 324 331 332 330 333 336 328 320 324 331 332 332 337 341 341 342 343 346 348 349 352 356 358 357 356 355
225 229 234 233 234 240 241 241 244 246 246 245 246 244 244 249 252 254 256 257 258 258 259 260 259 256 256 257 257 259 259 260 265 269 269 267 268 270 271 272 275 278 280 280 279 279 280 285 291 293 296 299 299 301 306 310 317 321 318 322 327 325 328 335 338 333 329 330 330 329 333 337 339 341 341 342 347 349 350 354 357 358 358 359 359
225 226 231 234 236 239 240 238 239 244 245 244 246 247 245 246 250 252 254 256 258 259 259 260 261 260 259 258 258 258 256 256 259 263 264 265 265 268 270 271 273 276 280 283 282 280 280 284 288 291 295 297 297 300 303 305 313 319 319 322 326 323 325 332 336 333 330 331 328 329 334 335 335 339 340 343 350 351 350 353 356 356 359 5 8
225 226 228 231 233 238 242 240 237 240 245 244 246 248 247 244 246 249 252 254 255 256 257 257 257 257 257 258 259 257 256 256 257 258 262 267 268 268 268 267 266 272 279 286 288 286 287 289 290 294 299 298 299 302 302 303 312 319 317 319 324 324 324 329 333 332 329 332 332 330 336 341 337 336 338 342 350 350 346 348 353 355 1 9 13
223 225 227 230 234 237 240 241 238 240 244 246 247 249 248 245 245 248 252 253 253 253 254 255 257 260 261 260 258 257 256 251 250 252 253 255 260 265 265 263 263 271 281 288 290 289 289 291 293 297 300 300 301 304 306 307 310 311 310 314 319 322 324 327 329 326 326 332 335 330 335 345 335 331 337 340 341 347 345 344 348 352 360 10 13
225 227 228 228 232 235 236 238 239 238 241 245 246 247 247 246 246 249 253 254 254 253 252 253 254 255 257 259 258 257 255 253 253 258 257 254 254 259 266 270 272 280 287 289 290 290 290 290 294 299 300 300 304 307 309 310 308 307 309 314 318 319 320 324 322 320 322 327 331 324 322 334 327 325 338 334 328 340 346 342 345 350 355 4 8
227 228 230 229 231 235 237 240 242 242 243 243 243 244 245 246 248 249 251 253 253 249 248 251 254 254 256 260 262 263 266 266 267 266 265 262 259 258 262 269 273 281 287 287 286 289 291 292 296 302 301 301 304 305 306 309 309 306 307 312 316 316 317 322 321 317 317 321 325 319 317 332 333 323 333 327 320 333 342 341 347 351 351 355 358
230 232 234 235 236 237 239 242 244 246 245 242 246 253 254 251 249 249 251 253 254 255 257 259 263 264 265 266 268 270 270 271 274 274 271 267 264 262 263 265 269 276 283 286 285 284 287 291 296 300 300 300 302 302 303 304 301 301 306 310 312 313 317 321 319 314 313 316 321 320 316 329 341 331 328 319 317 330 337 339 345 348 347 350 352
233 237 239 240 241 241 242 244 245 247 247 246 252 263 265 258 250 247 248 248 250 256 264 268 270 272 272 271 268 263 257 258 267 274 274 272 268 266 264 264 267 270 275 281 283 282 283 289 295 299 299 300 302 301 298 297 296 301 307 308 308 312 316 317 315 310 309 312 322 334 332 332 343 339 324 310 311 324 334 337 339 342 343 346 349
232 236 238 240 244 244 243 245 246 249 251 252 254 261 265 265 259 253 252 254 255 255 257 264 270 272 274 274 270 265 261 260 265 271 275 277 274 269 267 267 268 268 270 273 276 278 281 285 289 292 294 296 300 299 297 297 299 302 305 305 306 310 308 306 308 306 306 312 327 342 346 339 333 335 327 314 311 315 326 333 334 335 339 340 342
234 236 237 239 243 245 246 248 251 255 255 254 254 258 262 266 268 267 266 268 269 267 264 266 268 269 271 273 272 272 271 270 271 276 279 280 279 276 274 273 273 273 273 271 271 275 278 282 286 289 290 294 298 299 297 297 297 297 298 300 301 301 301 304 311 314 310 312 326 339 343 334 326 331 335 321 310 309 316 327 331 331 332 335 338
235 237 237 236 240 244 248 249 252 254 255 256 259 259 257 263 270 272 272 272 272 272 271 270 271 273 273 272 272 275 277 276 276 280 280 279 280 281 279 275 273 275 274 267 267 275 281 284 285 283 283 288 294 296 294 295 296 295 296 299 301 309 317 319 326 326 307 296 307 326 331 325 322 323 322 318 307 304 308 317 323 325 326 330 333
232 234 235 235 238 244 248 250 251 254 257 262 265 261 257 262 268 268 271 274 275 275 275 273 275 277 272 268 274 278 278 276 275 275 276 277 277 277 276 272 269 272 274 266 263 272 280 281 281 280 280 284 288 288 287 289 292 291 293 302 309 318 324 321 323 332 309 287 293 310 323 323 317 313 313 312 299 288 298 309 315 317 319 323 327
234 236 238 237 237 240 244 247 250 256 261 262 263 262 261 265 268 269 271 274 275 278 277 273 271 267 260 261 271 274 270 270 272 273 273 274 274 274 276 275 269 266 270 269 266 267 274 279 282 282 282 283 284 284 283 286 286 283 281 292 311 318 322 321 321 330 317 290 289 303 322 324 316 312 312 309 296 278 279 296 303 307 310 313 319
239 241 244 246 246 246 245 245 246 255 262 263 263 263 263 264 266 269 271 273 275 277 278 277 273 266 261 262 267 268 267 269 272 273 272 272 273 275 276 277 274 268 268 272 274 275 279 283 283 281 280 281 281 283 286 286 282 279 280 289 310 324 326 323 318 320 313 291 289 302 316 318 318 318 317 319 310 282 264 281 296 308 315 317 319
245 245 246 249 250 252 253 251 250 256 265 268 269 268 267 266 266 268 270 273 274 274 275 276 269 263 263 266 268 268 270 272 272 272 272 272 273 274 274 275 277 277 273 271 273 278 280 279 275 275 276 275 273 276 282 281 279 285 305 311 315 320 320 324 324 323 316 289 289 302 311 311 320 321 319 329 326 295 279 294 301 308 314 316 318